Weather in Labasa

Fiji     16°25′50″S   179°22′15″E
temp.,
°C
wind,
m/s
gust,
m/s
humid.,
%
clouds,
%
prec.,
mm/h
press.,
hPa
HPBL,
m
17 may, mon
mon1700:00+24ese238842 0.1 1014146
03:00+24ese238914 0.0 1013153
06:00+23se239123 0.0 1014142
09:00+27ese24765 0.0 1015730
12:00+30ene345910 0.0 10141293
15:00+30ene346221 0.1 10111084
18:00+25ese23881 0.4 1013159
21:00+23se239417 0.0 101598
18 may, tue
tue1800:00+23se229518 0.0 101485
03:00+23se239422 0.0 1013119
06:00+23se249317 0.0 1013165
09:00+27ese36746 0.0 1014871
12:00+29ese35601 0.1 10131170
15:00+29ese35639 0.0 10101109
18:00+24se34881 0.0 1012229
21:00+23sse239526 0.0 1014101
19 may, wed
wed1900:00+23se239419 0.0 1013170
03:00+23se249218 0.0 1012201
06:00+22sse249529 0.0 1013205
09:00+27ese37757 0.0 1013811
12:00+29ese46636 0.1 10111249
15:00+28ese45677 0.1 10101084
18:00+24se36908 0.2 1011322
21:00+23se269251 0.0 1013315
20 may, thu
thu2000:00+23se259423 0.1 1012240
03:00+22se249427 0.1 1010210
06:00+23se239417 1.9 1011139
09:00+26ese358085 1.0 1012618
12:00+28ene357413 3.6 1010983
15:00+27ene357872 2.9 1009834
18:00+24e23925 5.1 1010146
21:00+23ese2394100 2.0 1011100
21 may, fri
fri2100:00+23ese1295100 4.6 101057
03:00+23ese1296100 5.0 100867
06:00+23ne2396100 12.7 1009134
09:00+23ne2497100 10.1 1011240
12:00+23se1296100 16.3 1009141
15:00+23ese129394 0.4 1007149
18:00+23ene129495 1.2 100880
21:00+23ene129326 0.5 1009136